EW1732 Weather Reports


time (UTC)temp
C
wind
direction
speed
KPH
gust
KPH
rain 1hr
cm
rain 24hr
cm
rain mn
cm
humidity
%
barometer
mb
20260906232810 17 229 0.0 0.0 0.00 0.00 0.00 82 1016.2
20260906231826 17 229 0.0 0.0 0.00 0.00 0.00 79 1016.1
20260906230839 18 229 0.0 0.0 0.00 0.00 0.00 78 1016.0
20260906225842 18 229 0.0 0.0 0.00 0.00 0.00 75 1016.0
20260906224832 19 229 0.0 0.0 0.00 0.00 0.00 73 1015.9
20260906223808 20 229 0.0 0.0 0.00 0.00 0.00 70 1016.0
20260906222743 20 206 0.0 0.0 0.00 0.00 0.00 67 1016.0
20260906221732 21 236 0.0 3.2 0.00 0.00 0.00 66 1016.0
20260906220744 21 238 0.0 1.6 0.00 0.00 0.00 65 1015.8
20260906215733 22 214 0.0 4.8 0.00 0.00 0.00 62 1015.6
20260906214742 22 249 0.0 4.8 0.00 0.00 0.00 62 1015.5
20260906210343 21 110 0.0 0.0 0.00 0.00 0.00 78 1015.3
20260906205319 21 207 0.0 0.0 0.00 0.00 0.00 78 1015.2
20260906204340 20 148 0.0 0.0 0.00 0.00 0.00 80 1015.3
20260906203349 20 151 0.0 0.0 0.00 0.00 0.00 80 1015.3
20260906202344 19 94 0.0 0.0 0.00 0.00 0.00 79 1015.3
20260906195051 20 226 0.0 0.0 0.00 0.00 0.00 78 1015.3
20260906194035 21 82 0.0 4.8 0.00 0.00 0.00 75 1015.3
20260906193056 22 320 0.0 1.6 0.00 0.00 0.00 74 1015.0
20260906192049 21 70 0.0 1.6 0.00 0.00 0.00 75 1015.0
20260906191015 21 239 0.0 0.0 0.00 0.00 0.00 76 1014.9
20260906185957 21 249 0.0 1.6 0.00 0.00 0.00 78 1015.0
20260906185012 20 18 0.0 0.0 0.00 0.00 0.00 80 1015.1
20260906184000 20 227 0.0 0.0 0.00 0.00 0.00 79 1015.1
20260906181904 21 61 0.0 0.0 0.00 0.00 0.00 73 1015.2
20260906180905 22 356 0.0 0.0 0.00 0.00 0.00 69 1015.0
20260906175905 21 169 0.0 0.0 0.00 0.00 0.00 74 1015.0
20260906174915 21 148 0.0 0.0 0.00 0.00 0.00 73 1015.0
20260906173903 22 88 0.0 0.0 0.00 0.00 0.00 70 1015.2
20260906172833 22 314 0.0 0.0 0.00 0.00 0.00 73 1015.0
20260906170700 20 259 0.0 0.0 0.00 0.00 0.00 77 1015.4
20260906165713 21 215 0.0 0.0 0.00 0.00 0.00 75 1015.3
20260906164717 21 77 0.0 3.2 0.00 0.00 0.00 71 1015.3
20260906163647 21 65 0.0 3.2 0.00 0.00 0.00 72 1015.3
20260906162646 21 111 0.0 1.6 0.00 0.00 0.00 76 1015.4
20260906161632 20 82 0.0 4.8 0.00 0.00 0.00 75 1015.5
20260906160657 21 217 0.0 3.2 0.00 0.00 0.00 75 1015.4
20260906155642 21 226 0.0 0.0 0.00 0.00 0.00 78 1015.5
20260906154618 20 181 0.0 0.0 0.00 0.00 0.00 79 1015.6
20260906153608 20 172 0.0 1.6 0.00 0.00 0.00 78 1015.7
20260906152547 20 77 0.0 0.0 0.00 0.00 0.00 79 1015.7
20260906151533 20 72 0.0 4.8 0.00 0.00 0.00 78 1015.7
20260906150516 19 233 0.0 4.8 0.00 0.00 0.00 80 1015.7
20260906145507 18 75 0.0 0.0 0.00 0.00 0.00 82 1015.8
20260906144530 18 148 0.0 0.0 0.00 0.00 0.00 82 1015.8
20260906142316 18 136 0.0 1.6 0.00 0.00 0.00 82 1015.7
20260906141330 17 59 0.0 0.0 0.00 0.00 0.00 84 1015.6
20260906140304 17 61 0.0 0.0 0.00 0.00 0.00 85 1015.5
20260906135251 17 82 0.0 1.6 0.00 0.00 0.00 85 1015.6
20260906134222 17 63 0.0 1.6 0.00 0.00 0.00 85 1015.5
20260906132039 17 51 0.0 0.0 0.00 0.00 0.00 86 1015.4
20260906131101 17 91 0.0 1.6 0.00 0.00 0.00 88 1015.3
20260906130113 17 70 0.0 1.6 0.00 0.00 0.00 86 1015.3
20260906125045 17 72 0.0 0.0 0.00 0.00 0.00 87 1015.2
20260906122924 17 230 0.0 0.0 0.00 0.00 0.00 88 1015.1
20260906121944 17 230 0.0 0.0 0.00 0.00 0.00 88 1014.8
20260906115845 16 132 0.0 0.0 0.00 0.00 0.00 91 1014.9
20260906114817 16 210 0.0 0.0 0.00 0.00 0.00 92 1014.9
20260906113835 16 210 0.0 0.0 0.00 0.00 0.00 93 1014.8
20260906112927 15 210 0.0 0.0 0.00 0.00 0.00 93 1014.8
20260906111849 15 68 0.0 0.0 0.00 0.00 0.00 93 1014.8
20260906105748 15 68 0.0 0.0 0.00 0.00 0.00 92 1014.3
20260906104753 15 68 0.0 0.0 0.00 0.00 0.00 91 1013.9
20260906103748 16 68 0.0 0.0 0.00 0.00 0.00 91 1013.9
20260906101625 16 68 0.0 0.0 0.00 0.00 0.00 91 1013.8
20260906100601 16 68 0.0 0.0 0.00 0.00 0.00 91 1013.8
20260906095617 16 68 0.0 0.0 0.00 0.00 0.00 91 1013.7
20260906094543 16 68 0.0 0.0 0.00 0.00 0.00 91 1013.4
20260906093552 16 68 0.0 0.0 0.00 0.00 0.00 91 1013.4
20260906091431 16 68 0.0 0.0 0.00 0.00 0.00 90 1013.2
20260906090430 16 68 0.0 0.0 0.00 0.00 0.00 90 1013.2
20260906085425 16 68 0.0 0.0 0.00 0.00 0.00 90 1013.3
20260906084425 16 68 0.0 0.0 0.00 0.00 0.00 90 1013.3
20260906083404 16 68 0.0 0.0 0.00 0.00 0.00 90 1013.0
20260906082340 16 68 0.0 0.0 0.00 0.00 0.00 91 1012.9
20260906081327 16 68 0.0 0.0 0.00 0.00 0.00 91 1013.0
20260906080333 16 68 0.0 0.0 0.00 0.00 0.00 92 1013.0
20260906075312 17 68 0.0 0.0 0.00 0.00 0.00 93 1012.7
20260906074320 17 68 0.0 0.0 0.00 0.00 0.00 93 1012.8
20260906073336 17 68 0.0 0.0 0.00 0.00 0.00 93 1012.8
20260906072307 17 68 0.0 0.0 0.00 0.00 0.00 93 1012.7
20260906070145 17 68 0.0 0.0 0.00 0.00 0.00 93 1012.8
20260906065139 17 69 0.0 0.0 0.00 0.00 0.00 93 1012.9
20260906064119 17 68 0.0 0.0 0.00 0.00 0.00 93 1012.8
20260906063132 17 79 0.0 0.0 0.00 0.00 0.00 93 1012.9
20260906061024 17 144 0.0 0.0 0.00 0.00 0.00 95 1013.0
20260906055951 17 217 0.0 0.0 0.00 0.00 0.00 95 1013.0
20260906055008 17 218 0.0 0.0 0.00 0.00 0.00 95 1013.1
20260906054014 17 218 0.0 0.0 0.00 0.00 0.00 95 1013.1
20260906053020 17 218 0.0 0.0 0.00 0.00 0.00 95 1013.0
20260906051959 17 218 0.0 0.0 0.00 0.00 0.00 95 1013.0
20260906051023 17 218 0.0 0.0 0.00 0.00 0.00 95 1012.9
20260906050044 17 218 0.0 0.0 0.00 0.00 0.00 95 1012.9
20260906045033 17 218 0.0 0.0 0.00 0.00 0.00 95 1013.0
20260906044044 17 217 0.0 0.0 0.00 0.00 0.00 95 1013.0
20260906041845 16 218 0.0 0.0 0.00 0.00 0.00 95 1012.9
20260906040905 16 217 0.0 0.0 0.00 0.00 0.00 94 1012.9
20260906035845 16 218 0.0 0.0 0.00 0.00 0.00 94 1013.0
20260906034853 16 218 0.0 0.0 0.00 0.00 0.00 93 1012.9
20260906033914 16 218 0.0 0.0 0.00 0.00 0.00 93 1012.8
20260906032922 17 218 0.0 0.0 0.00 0.00 0.00 92 1012.6
20260906031932 17 217 0.0 0.0 0.00 0.00 0.00 92 1012.6
20260906025824 17 218 0.0 0.0 0.00 0.00 0.00 91 1012.5
20260906024754 17 218 0.0 0.0 0.00 0.00 0.00 91 1012.7
20260906023814 17 218 0.0 0.0 0.00 0.00 0.00 91 1012.6
20260906022835 17 218 0.0 0.0 0.00 0.00 0.00 90 1012.5
20260906021841 17 218 0.0 0.0 0.00 0.00 0.00 88 1012.4
20260906020811 17 218 0.0 0.0 0.00 0.00 0.00 88 1012.4
20260906015831 18 218 0.0 0.0 0.00 0.00 0.00 87 1012.3
20260906012453 18 218 0.0 0.0 0.00 0.00 0.00 83 1012.0
20260906011434 19 229 0.0 0.0 0.00 0.00 0.00 83 1012.0
20260906010420 19 241 0.0 1.6 0.00 0.00 0.00 82 1012.0
20260906004336 20 233 0.0 0.0 0.00 0.00 0.00 81 1011.7
20260906003357 20 207 0.0 0.0 0.00 0.00 0.00 79 1011.7
20260906002410 20 221 0.0 0.0 0.00 0.00 0.00 79 1011.7
20260906000249 20 229 0.0 0.0 0.00 0.00 0.00 78 1011.5
20260905235248 20 229 0.0 0.0 0.00 0.00 0.00 78 1011.3
20260905234311 20 229 0.0 0.0 0.00 0.00 0.00 78 1011.3
20260905233245 21 223 0.0 0.0 0.00 0.00 0.00 77 1011.2